This is the latest recevied weather packets stored in our database for station/object K0KDS. If no packets are shown the sender has not sent any weather packets the latest 10 day(s).
| Time | Temp. | Humidity | Pressure | Rain* | Wind** | Luminosity | Snow |
|---|---|---|---|---|---|---|---|
| 1777743146 | 13.89° C | 35% | 1018 hPa | 0 mm | - | - | - |
| 1777742246 | 13.33° C | 37% | 1018 hPa | 0 mm | - | - | - |
| 1777741346 | 12.78° C | 38% | 1018.3 hPa | 0 mm | - | - | - |
| 1777740446 | 13.33° C | 42% | 1018.4 hPa | 0 mm | - | - | - |
| 1777739546 | 12.22° C | 38% | 1018.5 hPa | 0 mm | - | - | - |
| 1777738646 | 12.22° C | 39% | 1018.4 hPa | 0 mm | - | - | - |
| 1777737746 | 11.67° C | 39% | 1018.5 hPa | 0 mm | - | - | - |
| 1777736846 | 11.67° C | 39% | 1018.5 hPa | 0 mm | - | - | - |
| 1777735946 | 11.67° C | 44% | 1018.7 hPa | 0 mm | - | - | - |
| 1777735046 | 11.67° C | 43% | 1018.7 hPa | 0 mm | - | - | - |
| 1777734146 | 11.11° C | 46% | 1018.7 hPa | 0 mm | - | - | - |
| 1777733246 | 10.56° C | 45% | 1018.8 hPa | 0 mm | - | - | - |
| 1777732346 | 10° C | 53% | 1018.8 hPa | 0 mm | - | - | - |
| 1777731446 | 9.44° C | 54% | 1018.7 hPa | 0 mm | - | - | - |
| 1777730546 | 9.44° C | 60% | 1018.6 hPa | 0 mm | - | - | - |
| 1777729646 | 7.78° C | 64% | 1018.7 hPa | 0 mm | - | - | - |
| 1777728746 | 6.67° C | 67% | 1018.7 hPa | 0 mm | - | - | - |
| 1777727846 | 5.56° C | 71% | 1018.7 hPa | 0 mm | - | - | - |
| 1777726946 | 5° C | 73% | 1018.7 hPa | 0 mm | - | - | - |
| 1777726046 | 3.89° C | 76% | 1018.6 hPa | 0 mm | - | - | - |
| 1777725146 | 3.33° C | 77% | 1018.5 hPa | 0 mm | - | - | - |
| 1777724246 | 2.78° C | 77% | 1018.5 hPa | 0 mm | - | - | - |
| 1777723346 | 2.22° C | 77% | 1018.4 hPa | 0 mm | - | - | - |
| 1777722446 | 1.67° C | 79% | 1018.3 hPa | 0 mm | - | - | - |
| 1777721546 | 1.11° C | 81% | 1018.1 hPa | 0 mm | - | - | - |
* Rain latest hour (hover to see other rain measurements)
** Current wind speed in m/s (hover to see current wind gust speed)